Location: Poznań
(52.4062°N, 16.9234°E)
Time: 07:09:09
(UTC+02:00)

ISS - Pass Details

Date: 27 January 2019
Orbit: 411 x 421 km, 51.6° (Epoch: 24 October)

Event Time Altitude Azimuth Distance (km) Brightness Sun altitude
Rises 18:19:52 0° 247° (WSW) 2,413 1.7 -16.7°
Reaches altitude 10° 18:22:00 10° 244° (WSW) 1,548 0.3 -17.0°
Maximum altitude 18:25:26 60° 164° (SSE) 510 -3.5 -17.5°
Enters shadow 18:26:08 47° 114° (ESE) 593 -3.4 -17.7°
